Weather History for KOZW - October, 2011

Change the Weather History Date:

Sunday, October 16, 2011

  Actual Average Record
Temperature  
Mean Temperature 52 °F -  
Max Temperature 59 °F 59 °F 77 °F (1999)
Min Temperature 46 °F 40 °F 32 °F (1997)
Degree Days  
Heating Degree Days 12    
Growing Degree Days 2 (Base 50)    
Moisture  
Dew Point 39 °F    
Average Humidity 63    
Maximum Humidity 87    
Minimum Humidity 42    
Precipitation  
Precipitation 0.00 in - - ()
Sea Level Pressure  
Sea Level Pressure 29.74 in    
Wind  
Wind Speed 8 mph (WSW)    
Max Wind Speed 25 mph    
Max Gust Speed 33 mph    
Visibility 10 miles    
Events Rain    
Averages and records for this station are not official NWS values.
T = Trace of Precipitation, MM = Missing Value Source: NWS Daily Summary

Daily Weather History Graph

Daily Weather History Graph

Search for Another Location

Airport or City:

Trip Planner

Search our weather history database for the weather conditions in past years. The results will help you decide how hot, cold, wet, or windy it might be!

Date:

Astronomy

Oct. 16, 2011 Rise Set
Actual Time 7:49 AM EDT 6:52 PM EDT
Civil Twilight 7:21 AM EDT 7:20 PM EDT
Nautical Twilight 6:48 AM EDT 7:53 PM EDT
Astronomical Twilight 6:16 AM EDT 8:26 PM EDT
Moon 9:31 PM EDT (10/16) 12:11 PM EDT (10/16)
Length of Visible Light 11h 59m
Length of Day
11h 02m
Waning Gibbous, 82% of the Moon is Illuminated
Oct 16
Waning Gibbous
Oct 19
Last Quarter
Oct 26
New
Nov 2
First Quarter
Nov 10
Full

Hourly Weather History & Observations

Time (EDT) Temp. Windchill Dew Point Humidity Pressure Visibility Wind Dir Wind Speed Gust Speed Precip Events Conditions
12:14 AM 46.4 °F 42.4 °F 37.4 °F 71% 29.78 in 10.0 mi SW 8.1 mph - N/A   Clear
12:35 AM 46.4 °F 43.5 °F 37.4 °F 71% 29.79 in 10.0 mi WSW 5.8 mph - N/A   Clear
12:55 AM 48.2 °F - 37.4 °F 66% 29.79 in 10.0 mi WSW 10.4 mph - N/A   Clear
1:15 AM 50.0 °F - 37.4 °F 62% 29.80 in 10.0 mi WSW 8.1 mph - N/A   Clear
1:35 AM 48.2 °F - 37.4 °F 66% 29.80 in 10.0 mi WSW 8.1 mph - N/A   Clear
1:54 AM 48.2 °F - 37.4 °F 66% 29.80 in 10.0 mi WSW 6.9 mph - N/A   Clear
2:15 AM 48.2 °F - 37.4 °F 66% 29.80 in 10.0 mi SW 6.9 mph - N/A   Clear
2:35 AM 46.4 °F 43.5 °F 37.4 °F 71% 29.81 in 10.0 mi WSW 5.8 mph - N/A   Clear
2:54 AM 46.4 °F 43.5 °F 37.4 °F 71% 29.80 in 10.0 mi WSW 5.8 mph - N/A   Clear
3:15 AM 46.4 °F 43.5 °F 37.4 °F 71% 29.81 in 10.0 mi WSW 5.8 mph - N/A   Clear
3:35 AM 46.4 °F 44.3 °F 37.4 °F 71% 29.81 in 10.0 mi WSW 4.6 mph - N/A   Scattered Clouds
3:54 AM 46.4 °F 44.3 °F 37.4 °F 71% 29.80 in 10.0 mi SW 4.6 mph - N/A   Scattered Clouds
4:15 AM 46.4 °F 42.9 °F 37.4 °F 71% 29.80 in 10.0 mi SW 6.9 mph - N/A   Clear
4:55 AM 50.0 °F - 37.4 °F 62% 29.81 in 10.0 mi SW 5.8 mph - N/A   Mostly Cloudy
5:15 AM 50.0 °F - 39.2 °F 66% 29.80 in 10.0 mi SW 5.8 mph - N/A   Overcast
5:34 AM 48.2 °F - 37.4 °F 66% 29.80 in 10.0 mi Calm Calm - N/A   Scattered Clouds
5:55 AM 46.4 °F 44.3 °F 37.4 °F 71% 29.80 in 10.0 mi SW 4.6 mph - N/A   Scattered Clouds
6:15 AM 46.4 °F 43.5 °F 37.4 °F 71% 29.81 in 10.0 mi WSW 5.8 mph - N/A   Mostly Cloudy
6:34 AM 48.2 °F - 37.4 °F 66% 29.80 in 10.0 mi WSW 4.6 mph - N/A   Mostly Cloudy
7:15 AM 50.0 °F - 37.4 °F 62% 29.80 in 10.0 mi WSW 5.8 mph - N/A   Mostly Cloudy
7:34 AM 48.2 °F - 37.4 °F 66% 29.80 in 10.0 mi WSW 3.5 mph - N/A   Mostly Cloudy
7:55 AM 48.2 °F - 37.4 °F 66% 29.80 in 10.0 mi SW 4.6 mph - N/A   Overcast
8:15 AM 48.2 °F - 39.2 °F 71% 29.78 in 10.0 mi SW 5.8 mph - N/A Rain Rain
8:34 AM 46.4 °F 44.3 °F 41.0 °F 81% 29.79 in 10.0 mi SW 4.6 mph - N/A Rain Light Rain
9:14 AM 46.4 °F 45.2 °F 42.8 °F 87% 29.78 in 10.0 mi South 3.5 mph - N/A   Overcast
9:35 AM 48.2 °F - 42.8 °F 82% 29.78 in 10.0 mi Calm Calm - N/A   Overcast
9:55 AM 48.2 °F - 42.8 °F 82% 29.79 in 10.0 mi SSW 4.6 mph - N/A   Overcast
10:14 AM 50.0 °F - 42.8 °F 76% 29.78 in 10.0 mi SSW 3.5 mph - N/A   Overcast
10:35 AM 50.0 °F - 42.8 °F 76% 29.77 in 10.0 mi South 5.8 mph - N/A   Mostly Cloudy
10:55 AM 50.0 °F - 42.8 °F 76% 29.76 in 10.0 mi Calm Calm - N/A   Overcast
11:15 AM 51.8 °F - 42.8 °F 71% 29.73 in 10.0 mi South 3.5 mph - N/A   Overcast
11:35 AM 51.8 °F - 42.8 °F 71% 29.72 in 10.0 mi Calm Calm - N/A   Mostly Cloudy
12:15 PM 53.6 °F - 42.8 °F 67% 29.71 in 10.0 mi SSW 6.9 mph - N/A   Scattered Clouds
12:35 PM 55.4 °F - 42.8 °F 63% 29.71 in 10.0 mi SW 9.2 mph - N/A   Scattered Clouds
12:54 PM 55.4 °F - 42.8 °F 63% 29.70 in 10.0 mi SW 6.9 mph - N/A   Scattered Clouds
1:34 PM 59.0 °F - 42.8 °F 55% 29.66 in 10.0 mi West 10.4 mph - N/A   Clear
1:55 PM 59.0 °F - 41.0 °F 51% 29.65 in 10.0 mi WSW 6.9 mph 17.3 mph N/A   Clear
2:15 PM 59.0 °F - 41.0 °F 51% 29.65 in 10.0 mi WSW 9.2 mph 19.6 mph N/A   Mostly Cloudy
2:34 PM 59.0 °F - 41.0 °F 51% 29.65 in 10.0 mi WSW 12.7 mph - N/A   Mostly Cloudy
2:55 PM 59.0 °F - 41.0 °F 51% 29.64 in 10.0 mi West 10.4 mph 16.1 mph N/A   Mostly Cloudy
3:15 PM 59.0 °F - 41.0 °F 51% 29.64 in 10.0 mi WSW 12.7 mph 20.7 mph N/A   Overcast
3:34 PM 59.0 °F - 42.8 °F 55% 29.63 in 10.0 mi WSW 12.7 mph 17.3 mph N/A   Overcast
3:55 PM 57.2 °F - 42.8 °F 59% 29.64 in 10.0 mi West 13.8 mph 19.6 mph N/A   Overcast
4:15 PM 57.2 °F - 42.8 °F 59% 29.65 in 10.0 mi West 17.3 mph - N/A   Overcast
4:34 PM 57.2 °F - 42.8 °F 59% 29.65 in 10.0 mi West 13.8 mph 21.9 mph N/A   Mostly Cloudy
4:55 PM 59.0 °F - 35.6 °F 42% 29.65 in 10.0 mi West 25.3 mph 33.4 mph N/A   Mostly Cloudy
5:14 PM 59.0 °F - 35.6 °F 42% 29.66 in 10.0 mi West 21.9 mph 28.8 mph N/A   Mostly Cloudy
5:35 PM 55.4 °F - 35.6 °F 47% 29.67 in 10.0 mi West 19.6 mph 26.5 mph N/A   Mostly Cloudy
5:55 PM 55.4 °F - 33.8 °F 44% 29.67 in 10.0 mi West 18.4 mph 24.2 mph N/A   Scattered Clouds
6:14 PM 53.6 °F - 33.8 °F 47% 29.68 in 10.0 mi West 16.1 mph 23.0 mph N/A   Clear
6:35 PM 53.6 °F - 32.0 °F 44% 29.69 in 10.0 mi West 13.8 mph 18.4 mph N/A   Clear
6:55 PM 51.8 °F - 32.0 °F 47% 29.69 in 10.0 mi West 11.5 mph 16.1 mph N/A   Clear
7:15 PM 51.8 °F - 32.0 °F 47% 29.70 in 10.0 mi West 10.4 mph - N/A   Clear
7:35 PM 50.0 °F - 33.8 °F 54% 29.70 in 10.0 mi West 9.2 mph - N/A   Clear
7:54 PM 48.2 °F - 33.8 °F 58% 29.71 in 10.0 mi WSW 8.1 mph - N/A   Clear
8:15 PM 48.2 °F - 33.8 °F 58% 29.71 in 10.0 mi WSW 8.1 mph - N/A   Clear
8:35 PM 46.4 °F 42.4 °F 33.8 °F 62% 29.70 in 10.0 mi WSW 8.1 mph - N/A   Clear
8:54 PM 46.4 °F 42.4 °F 33.8 °F 62% 29.70 in 10.0 mi WSW 8.1 mph - N/A   Clear
9:15 PM 46.4 °F 43.5 °F 35.6 °F 66% 29.70 in 10.0 mi SW 5.8 mph - N/A   Clear
9:35 PM 46.4 °F 42.9 °F 35.6 °F 66% 29.71 in 10.0 mi SW 6.9 mph - N/A   Clear
9:54 PM 46.4 °F 41.9 °F 35.6 °F 66% 29.71 in 10.0 mi SW 9.2 mph - N/A   Scattered Clouds
10:15 PM 46.4 °F 41.5 °F 35.6 °F 66% 29.71 in 10.0 mi WSW 10.4 mph - N/A   Mostly Cloudy
10:35 PM 48.2 °F - 37.4 °F 66% 29.72 in 10.0 mi WSW 9.2 mph - N/A   Mostly Cloudy
10:55 PM 46.4 °F 41.9 °F 37.4 °F 71% 29.72 in 10.0 mi WSW 9.2 mph - N/A   Scattered Clouds
11:14 PM 46.4 °F 41.9 °F 37.4 °F 71% 29.72 in 10.0 mi WSW 9.2 mph - N/A   Mostly Cloudy
11:34 PM 46.4 °F 41.9 °F 37.4 °F 71% 29.71 in 10.0 mi WSW 9.2 mph - N/A   Scattered Clouds
11:55 PM 46.4 °F 41.5 °F 37.4 °F 71% 29.72 in 10.0 mi WSW 10.4 mph 17.3 mph N/A   Scattered Clouds